Location: Bellerive
(46.9237°N, 7.0223°E)
Time: 02:36:21
(UTC+00:00)

ATLAS 5 CENTAUR R/B - Pass Details

Date: 09 April 2020
Orbit: 543 x 1116 km, 63.4° (Epoch: 01 May)

Event Time Altitude Azimuth Distance (km) Brightness Sun altitude
Rises 19:58:45 0° 236° (SW) 2,741 5.2 -17.4°
Reaches altitude 10° 20:00:56 10° 243° (WSW) 1,887 4.4 -17.7°
Maximum altitude 20:05:00 47° 317° (NW) 829 2.6 -18.3°
Drops below altitude 10° 20:09:37 10° 32° (NNE) 2,142 4.4 -19.0°
Sets 20:12:14 0° 38° (NE) 3,159 5.2 -19.3°
